User: anonymous   Login
Location: Albany
(35.0000°S, 118.0000°E)
Time: 03:50:43
(UTC-04:00)
Language:

Cosmos 1758 Rocket - Orbit

View from above orbital plane
View from above orbital plane
View from above satellite
View from above satellite

Ground track
Ground track

The orbit data is extracted from the following two-line orbital elements,

1 16792U 86046B   16151.24063904  .00000112  00000-0  10665-4 0  9997
2 16792  82.4833 202.7150 0025767 112.6832 311.3605 14.83068369618127
Epoch (UTC): 30 May 2016 05:46:31
Eccentricity: 0.0025767
inclination: 82.4833°
perigee height: 601 km
apogee height: 637 km
right ascension of ascending node: 202.7150°
argument of perigee: 112.6832°
revolutions per day: 14.83068369
mean anomaly at epoch: 311.3605°
orbit number at epoch: 61812

The dashed part of the orbit path shows where the satellite is in the earth's shadow,  

DLR